一网星座-0663星 (ONEWEB-0663)

导读

ONEWEB-0663是英国OneWeb公司的第二代低轨宽带卫星,于2023年3月9日由SpaceX猎鹰9号火箭从美国佛罗里达州卡纳纳维拉尔角发射升空,属于OneWeb星座的第17次组网发射任务中的一颗卫星。卫星运行于1200公里高度的极轨轨道,工作在Ku波段,为OneWeb提供全球互联网接入服务,助力完成OneWeb近600颗卫星的组网建设。

基本信息
目录编号:
55823
目录名称:
ONEWEB-0663
国际标识:
2023-029AD
轨道中心:
EARTH
卫星名称:
一网星座-0663星
卫星全名:
一网星座-0663星 (ONEWEB-0663)
卫星状态:
在轨 (已飞行1237 天)
发射日期:
2023-03-09 UTC
国别 :
英国 (GB)
星等 :
--
轨道信息
数据来源 国际轨道数据
星历时间: 2026-07-27T11:48:52+0800
21小时前
查看轨道信息
半长轴: 7559.528km
偏心率: 0.0002308
轨道倾角: 87.918°
近地点辐角 104.239°
升交点赤经 266.536°
平近点角 255.900°
近地点: 1179.646km
远地点: 1183.136km
周期: 109.019分钟
每日圈数: 13.208722
详细信息
平衡模式:
三轴稳定
覆盖范围:
全球
运营商:
一网卫星公司
运营商所在国:
英国
制造商(研发单位):
一网卫星公司
制造商所在国:
英国
使用方式:
暂无
卫星简介
OneWeb卫星网络由648颗重约125公斤的微型卫星组成,运行在1200公里的轨道上。 每颗卫星都能够提供至少每秒8千兆位的吞吐量,以使用其高吞吐量的Ku频段有效载荷为家庭和移动平台提供互联网接入。该卫星仍在工作。
2D轨道图
3D轨道图
轨道高度分析图
轨道倾角分析图
轨道综合分析图
查看轨道综合分析图